#timestamp,LO_Frequency,Hit,StdDev 
1458540015.7,286047005.2,N
1458540035.5,286047005.5,N
1458540055.3,286047006.9,N
1458540075.2,286047005.3,N
1458540095.9,286047001.6,N
1458540115.7,286047005.4,N
1458540135.6,286047008.8,N
1458540155.4,286047002.0,N
1458540175.2,286047004.2,N
1458540195.0,286047002.1,N
1458540195.9,286047002.1,N
1458540215.8,286047002.6,N
1458540235.6,286047003.5,N
1458540255.4,286047002.7,N
1458540275.3,286046999.9,N
1458540295.1,286047000.9,N
1458540315.8,286047003.3,N
1458540335.7,286047002.9,N
1458540355.5,286047004.8,N
1458540375.3,286047007.6,N
1458540395.2,286047005.4,N
1458540415.9,286047004.2,N
1458540435.7,286047005.4,N
1458540455.6,286047003.8,N
1458540475.4,286047001.8,N
1458540495.2,286047005.9,N
1458540515.1,286047007.3,Y
1458540516.0,286047007.3,P
1458540535.8,286047002.2,N
1458540555.6,286047001.2,N
1458540575.4,286047004.0,N
1458540595.3,286047002.9,N
1458540615.1,286047003.8,N
1458540635.8,286047002.2,N
1458540655.7,286047001.4,N
1458540675.5,286047000.6,N
1458540695.3,286047000.4,N
1458540715.2,286047000.6,N
1458540735.9,286047000.9,N
1458540755.7,286047001.2,N
1458540775.6,286047000.8,N
1458540795.4,286046997.2,N
1458540815.2,286046995.8,N
1458540835.0,286046994.9,N
1458540836.0,286046994.9,N
1458540855.8,286046996.2,N
1458540875.6,286046996.4,N
1458540895.4,286046992.8,N
1458540915.3,286046991.4,N
1458540935.1,286046988.9,N
1458540955.8,286046989.3,N
1458540975.7,286046990.4,N
1458540995.5,286046991.8,N
1458541015.3,286046994.8,N
1458541035.2,286046990.9,N
1458541055.9,286046991.2,N
1458541075.7,286046990.4,N
1458541095.6,286046990.1,N
1458541115.4,286046990.6,N
1458541135.2,286046990.6,N
1458541155.0,286046991.8,N
1458541155.9,286046991.8,N
1458541175.8,286046992.1,N
1458541195.6,286046993.9,N
1458541215.4,286046993.9,N
1458541235.3,286046993.7,N
1458541255.1,286046996.0,N
1458541275.8,286046997.4,N
1458541295.7,286046994.0,N
1458541315.5,286046992.9,N
1458541335.3,286046993.3,N
1458541355.2,286046995.0,N
1458541375.9,286046994.8,N
1458541395.7,286046994.6,N
1458541415.6,286046996.0,N
1458541435.4,286046995.4,N
1458541455.2,286046994.1,N
1458541475.1,286046993.3,Y
1458541476.0,286046993.3,P
1458541495.8,286047002.7,P
1458541515.6,286047000.4,N
1458541535.5,286046998.7,N
1458541555.3,286046998.8,N
1458541575.1,286046996.5,N
1458541595.8,286047001.0,N
1458541615.7,286046998.7,N
1458541635.5,286047001.2,N
1458541655.3,286047002.4,N
1458541675.2,286047003.7,N
1458541695.0,286047006.3,N
1458541695.9,286047006.3,N
1458541715.7,286047009.1,N
1458541735.6,286047012.4,N
1458541755.4,286047011.7,N
1458541775.2,286047007.7,N
1458541795.1,286047008.1,N
1458541796.0,286047008.1,N
1458541815.8,286047008.1,N
1458541835.6,286047010.2,N
1458541855.5,286047005.3,N
1458541875.3,286047000.9,N
1458541895.1,286046995.6,N
1458541915.8,286046992.0,N
1458541935.7,286046990.2,N
1458541955.5,286046987.7,N
1458541975.3,286046987.5,N
1458541995.2,286046983.9,N
1458542015.9,286046986.4,N
1458542035.7,286046988.3,N
1458542055.6,286046985.6,N
1458542075.4,286046986.0,N
1458542095.2,286046988.0,N
1458542115.1,286046986.8,N
1458542116.0,286046986.8,N
1458542135.8,286046986.8,N
1458542155.6,286046983.0,N
1458542175.5,286046982.9,N
1458542195.3,286046984.9,N
1458542215.1,286046985.2,N
1458542235.9,286046989.6,N
1458542255.7,286046986.9,N
1458542275.5,286046989.0,N
1458542295.3,286046991.0,N
1458542315.2,286046987.5,N
1458542335.0,286046986.1,N
1458542335.9,286046986.1,N
1458542355.7,286046988.8,N
1458542375.6,286046990.9,N
1458542395.4,286046990.1,N
1458542415.2,286046991.9,N
1458542435.1,286046990.5,N
1458542436.0,286046990.5,Y
1458542455.8,286047003.6,P
1458542475.7,286047003.5,N
1458542495.5,286047001.7,N
1458542515.3,286047001.9,N
1458542535.2,286047002.4,N
1458542555.9,286046999.1,N
1458542575.7,286046998.7,N
1458542595.6,286047001.4,N
1458542615.4,286047004.5,N
1458542635.2,286047008.1,N
1458542655.0,286047009.9,N
1458542656.0,286047009.9,N
1458542675.8,286047012.3,N
1458542695.6,286047011.9,N
1458542715.4,286047016.6,N
1458542735.3,286047020.1,Y
1458542755.1,286047013.7,P
1458542775.8,286047009.7,N
1458542795.7,286047006.1,N
1458542815.5,286047009.7,N
1458542835.3,286047009.8,Y
1458542855.2,286047003.9,P
1458542875.0,286047002.9,N
1458542875.9,286047002.9,N
1458542895.7,286047002.9,N
1458542915.6,286047001.6,N
1458542935.4,286047000.8,N
1458542955.2,286046998.1,N
1458542975.1,286047000.6,N
1458542976.0,286047000.6,N
1458542995.8,286047001.6,N
1458543015.6,286047002.0,N
1458543035.5,286047004.0,N
1458543055.3,286047002.5,N
1458543075.1,286047003.1,N
1458543095.9,286047003.6,N
1458543115.7,286047002.9,N
1458543135.5,286047002.9,N
1458543155.3,286047004.9,N
1458543175.2,286047004.8,N
1458543195.0,286047006.9,Y
1458543195.9,286047006.9,P
1458543215.7,286047006.0,N
1458543235.6,286047002.0,N
1458543255.4,286047001.6,N
1458543275.2,286047002.1,N
1458543295.1,286046998.5,N
1458543296.0,286046998.5,N
1458543315.8,286047002.1,N
1458543335.6,286046997.0,N
1458543355.5,286046999.5,N
1458543375.3,286046997.8,N
1458543395.1,286047001.1,N
1458543415.9,286046998.7,N
1458543435.7,286047001.1,N
1458543455.5,286047001.8,N
1458543475.4,286047003.6,N
1458543495.2,286047003.9,N
1458543515.0,286047003.7,N
1458543515.9,286047003.7,N
1458543535.8,286047004.3,N
1458543555.6,286047000.6,N
1458543575.4,286046999.4,N
1458543595.2,286047000.0,N
